,,PA_Meas_PMT16A,,PR_Meas_QMR101_102,,RH_Meas_QMH101,,SR_Meas_QMS101,,TA_Meas_QMH101,,GenWind,,GenWind,
time,status,PA,status,PR,status,RH,status,SR,status,TA,status,DirAvg,status,SpdAvg,
2011-03-17, 00:00:04,VALID,916.015,VALID,0,VALID,96.8403,VALID,0,VALID,20.3464,VALID,165,VALID,0.365625,
2011-03-17, 00:01:04,VALID,915.992,VALID,0,VALID,96.8326,VALID,0,VALID,20.2863,VALID,165,VALID,0.625391,
2011-03-17, 00:02:04,VALID,915.997,VALID,0,VALID,96.8326,VALID,0,VALID,20.2863,VALID,165,VALID,0.478125,
2011-03-17, 00:03:04,VALID,915.98,VALID,0,VALID,96.8631,VALID,0,VALID,20.2684,VALID,165,VALID,0.584375,
2011-03-17, 00:04:04,VALID,915.97,VALID,0,VALID,96.8555,VALID,0,VALID,20.2278,VALID,165,VALID,0.671094,
2011-03-17, 00:05:04,VALID,915.955,VALID,0,VALID,96.8326,VALID,0,VALID,20.2083,VALID,152,VALID,0.636328,
2011-03-17, 00:06:04,VALID,915.954,VALID,0,VALID,96.8555,VALID,0,VALID,20.2098,VALID,150,VALID,0.311719,
2011-03-17, 00:07:04,VALID,915.927,VALID,0,VALID,96.8555,VALID,0,VALID,20.1888,VALID,150,VALID,0.492578,
2011-03-17, 00:08:04,VALID,915.891,VALID,0,VALID,96.886,VALID,0,VALID,20.1888,VALID,145,VALID,0.842188,
2011-03-17, 00:09:04,VALID,915.861,VALID,0,VALID,96.886,VALID,0,VALID,20.1888,VALID,154,VALID,0.878125,
2011-03-17, 00:10:04,VALID,915.844,VALID,0,VALID,96.8784,VALID,0,VALID,20.1693,VALID,154,VALID,0.625,
2011-03-17, 00:11:04,VALID,915.805,VALID,0,VALID,96.9165,VALID,0,VALID,20.1888,VALID,154,VALID,0.692187,
2011-03-17, 00:12:04,VALID,915.788,VALID,0,VALID,96.9012,VALID,0,VALID,20.1888,VALID,154,VALID,0.414453,
2011-03-17, 00:13:04,VALID,915.77,VALID,0,VALID,96.8936,VALID,0,VALID,20.1903,VALID,154,VALID,0.686719,
2011-03-17, 00:14:04,VALID,915.76,VALID,0,VALID,96.8707,VALID,0,VALID,20.1498,VALID,154,VALID,0.410547,
2011-03-17, 00:15:04,VALID,915.773,VALID,0,VALID,96.8631,VALID,0,VALID,20.1513,VALID,154,VALID,0.326562,
2011-03-17, 00:16:04,VALID,915.758,VALID,0,VALID,96.8707,VALID,0,VALID,20.1318,VALID,154,VALID,0.559375,
2011-03-17, 00:17:04,VALID,915.759,VALID,0,VALID,96.8936,VALID,0,VALID,20.1318,VALID,154,VALID,0.60625,
2011-03-17, 00:18:04,VALID,915.743,VALID,0,VALID,96.8631,VALID,0,VALID,20.1123,VALID,154,VALID,0.760938,
2011-03-17, 00:19:04,VALID,915.756,VALID,0,VALID,96.8479,VALID,0,VALID,20.0523,VALID,154,VALID,0.539844,
2011-03-17, 00:20:04,VALID,915.73,VALID,0,VALID,96.886,VALID,0,VALID,20.0733,VALID,154,VALID,0.781641,
2011-03-17, 00:21:04,VALID,915.753,VALID,0,VALID,96.9165,VALID,0,VALID,20.0523,VALID,154,VALID,0.640234,
2011-03-17, 00:22:04,VALID,915.718,VALID,0,VALID,96.9012,VALID,0,VALID,20.0538,VALID,153,VALID,0.773438,
2011-03-17, 00:23:04,VALID,915.686,VALID,0,VALID,96.9089,VALID,0,VALID,20.0538,VALID,153,VALID,0.883203,
2011-03-17, 00:24:04,VALID,915.683,VALID,0,VALID,96.9165,VALID,0,VALID,20.0343,VALID,146,VALID,0.469922,
2011-03-17, 00:25:04,VALID,915.663,VALID,0,VALID,96.9165,VALID,0,VALID,20.0148,VALID,113,VALID,0.817969,
2011-03-17, 00:26:04,VALID,915.624,VALID,0,VALID,96.9241,VALID,0,VALID,20.0148,VALID,113,VALID,0.99375,
2011-03-17, 00:27:04,VALID,915.58,VALID,0,VALID,96.947,VALID,0,VALID,19.9953,VALID,128,VALID,0.995703,
2011-03-17, 00:28:04,VALID,915.555,VALID,0,VALID,96.947,VALID,0,VALID,19.9953,VALID,128,VALID,1.04219,
2011-03-17, 00:29:04,VALID,915.533,VALID,0,VALID,96.9546,VALID,0,VALID,19.9743,VALID,128,VALID,1.2375,
2011-03-17, 00:30:04,VALID,915.516,VALID,0,VALID,96.947,VALID,0,VALID,19.9353,VALID,128,VALID,1.1668,
2011-03-17, 00:31:04,VALID,915.525,VALID,0,VALID,96.9546,VALID,0,VALID,19.9758,VALID,128,VALID,0.980078,
2011-03-17, 00:32:04,VALID,915.473,VALID,0,VALID,96.947,VALID,0,VALID,19.9773,VALID,145,VALID,0.699609,
2011-03-17, 00:33:04,VALID,915.472,VALID,0,VALID,96.9317,VALID,0,VALID,19.9158,VALID,141,VALID,0.702734,
2011-03-17, 00:34:04,VALID,915.446,VALID,0,VALID,96.9394,VALID,0,VALID,19.9368,VALID,141,VALID,0.830859,
2011-03-17, 00:35:04,VALID,915.436,VALID,0,VALID,96.9622,VALID,0,VALID,19.9173,VALID,141,VALID,0.529688,
2011-03-17, 00:36:04,VALID,915.404,VALID,0,VALID,96.947,VALID,0,VALID,19.8978,VALID,141,VALID,0.612891,
2011-03-17, 00:37:04,VALID,915.411,VALID,0,VALID,96.947,VALID,0,VALID,19.8978,VALID,141,VALID,0.714453,
2011-03-17, 00:38:04,VALID,915.336,VALID,0,VALID,96.9012,VALID,0,VALID,19.8783,VALID,138,VALID,1.20547,
2011-03-17, 00:39:04,VALID,915.333,VALID,0,VALID,96.886,VALID,0,VALID,19.8378,VALID,125,VALID,0.836328,
2011-03-17, 00:40:04,VALID,915.314,VALID,0,VALID,96.8936,VALID,0,VALID,19.8393,VALID,136,VALID,0.762891,
2011-03-17, 00:41:04,VALID,915.283,VALID,0,VALID,96.8707,VALID,0,VALID,19.8393,VALID,155,VALID,0.567578,
2011-03-17, 00:42:04,VALID,915.273,VALID,0,VALID,96.8707,VALID,0,VALID,19.8198,VALID,112,VALID,0.876172,
2011-03-17, 00:43:04,VALID,915.283,VALID,0,VALID,96.8174,VALID,0,VALID,19.8003,VALID,118,VALID,0.629687,
2011-03-17, 00:44:04,VALID,915.263,VALID,0,VALID,96.8326,VALID,0,VALID,19.8213,VALID,130,VALID,0.496484,
2011-03-17, 00:45:04,VALID,915.255,VALID,0,VALID,96.8326,VALID,0,VALID,19.8198,VALID,134,VALID,0.712109,
2011-03-17, 00:46:04,VALID,915.223,VALID,0,VALID,96.8174,VALID,0,VALID,19.8603,VALID,160,VALID,0.93125,
2011-03-17, 00:47:04,VALID,915.232,VALID,0,VALID,96.8021,VALID,0,VALID,19.8198,VALID,161,VALID,1.45586,
2011-03-17, 00:48:04,VALID,915.198,VALID,0,VALID,96.8174,VALID,0,VALID,19.8198,VALID,155,VALID,0.595312,
2011-03-17, 00:49:04,VALID,915.185,VALID,0,VALID,96.7793,VALID,0,VALID,19.8393,VALID,150,VALID,1.23281,
2011-03-17, 00:50:04,VALID,915.195,VALID,0,VALID,96.7564,VALID,0,VALID,19.8588,VALID,187,VALID,0.364062,
2011-03-17, 00:51:04,VALID,915.164,VALID,0,VALID,96.7259,VALID,0,VALID,19.8378,VALID,168,VALID,0.639844,
2011-03-17, 00:52:04,VALID,915.166,VALID,0,VALID,96.7183,VALID,0,VALID,19.8573,VALID,168,VALID,0.735156,
2011-03-17, 00:53:04,VALID,915.158,VALID,0,VALID,96.6573,VALID,0,VALID,19.8378,VALID,160,VALID,1.00273,
2011-03-17, 00:54:04,VALID,915.167,VALID,0,VALID,96.6192,VALID,0,VALID,19.8393,VALID,160,VALID,0.465625,
2011-03-17, 00:55:04,VALID,915.13,VALID,0,VALID,96.5506,VALID,0,VALID,19.8393,VALID,160,VALID,0.821875,
2011-03-17, 00:56:04,VALID,915.096,VALID,0,VALID,96.5048,VALID,0,VALID,19.8408,VALID,160,VALID,0.573047,
2011-03-17, 00:57:04,VALID,915.071,VALID,0,VALID,96.4438,VALID,0,VALID,19.8003,VALID,160,VALID,0.484375,
2011-03-17, 00:58:04,VALID,915.049,VALID,0,VALID,96.3524,VALID,0,VALID,19.7808,VALID,160,VALID,0.901172,
2011-03-17, 00:59:04,VALID,915.035,VALID,0,VALID,96.2609,VALID,0,VALID,19.7613,VALID,160,VALID,0.860156,
2011-03-17, 01:00:04,VALID,915.052,VALID,0,VALID,96.177,VALID,0,VALID,19.7613,VALID,160,VALID,0.883984,
2011-03-17, 01:01:04,VALID,915.035,VALID,0,VALID,96.0779,VALID,0,VALID,19.7613,VALID,160,VALID,0.686328,
2011-03-17, 01:02:04,VALID,915.009,VALID,0,VALID,95.9483,VALID,0.107441,VALID,19.7403,VALID,159,VALID,0.610547,
2011-03-17, 01:03:04,VALID,915.02,VALID,0,VALID,95.8035,VALID,0,VALID,19.7613,VALID,159,VALID,0.33125,
2011-03-17, 01:04:04,VALID,914.984,VALID,0,VALID,95.712,VALID,0,VALID,19.7613,VALID,159,VALID,0.197656,
2011-03-17, 01:05:04,VALID,915.002,VALID,0,VALID,95.6357,VALID,0,VALID,19.7208,VALID,159,VALID,0.179297,
2011-03-17, 01:06:04,VALID,914.984,VALID,0,VALID,95.5748,VALID,0,VALID,19.7208,VALID,159,VALID,0.449609,
2011-03-17, 01:07:04,VALID,914.98,VALID,0,VALID,95.4757,VALID,0.107441,VALID,19.7208,VALID,159,VALID,0.364062,
2011-03-17, 01:08:04,VALID,914.944,VALID,0,VALID,95.4452,VALID,0.107441,VALID,19.7013,VALID,159,VALID,0.522266,
2011-03-17, 01:09:04,VALID,914.959,VALID,0,VALID,95.3232,VALID,0.107441,VALID,19.7223,VALID,159,VALID,0.6,
2011-03-17, 01:10:04,VALID,914.926,VALID,0,VALID,95.2317,VALID,0,VALID,19.6818,VALID,159,VALID,0.682422,
2011-03-17, 01:11:04,VALID,914.93,VALID,0,VALID,95.2165,VALID,0,VALID,19.6818,VALID,159,VALID,0.841406,
2011-03-17, 01:12:04,VALID,914.911,VALID,0,VALID,95.2012,VALID,0.107441,VALID,19.7028,VALID,159,VALID,0.500391,
2011-03-17, 01:13:04,VALID,914.897,VALID,0,VALID,95.1631,VALID,0,VALID,19.6818,VALID,159,VALID,0.4625,
2011-03-17, 01:14:04,VALID,914.887,VALID,0,VALID,95.1479,VALID,0,VALID,19.6638,VALID,159,VALID,0.245703,
2011-03-17, 01:15:04,VALID,914.893,VALID,0,VALID,95.2241,VALID,0,VALID,19.6638,VALID,159,VALID,0.801172,
2011-03-17, 01:16:04,VALID,914.883,VALID,0,VALID,95.2317,VALID,0.107441,VALID,19.6428,VALID,159,VALID,0.619922,
2011-03-17, 01:17:04,VALID,914.872,VALID,0,VALID,95.2622,VALID,0,VALID,19.6443,VALID,159,VALID,0.500391,
2011-03-17, 01:18:04,VALID,914.894,VALID,0,VALID,95.2698,VALID,0,VALID,19.6443,VALID,158,VALID,0.6875,
2011-03-17, 01:19:04,VALID,914.862,VALID,0,VALID,95.3537,VALID,0,VALID,19.6248,VALID,142,VALID,0.735937,
2011-03-17, 01:20:04,VALID,914.867,VALID,0,VALID,95.3842,VALID,0,VALID,19.6038,VALID,141,VALID,0.659375,
2011-03-17, 01:21:04,VALID,914.859,VALID,0,VALID,95.3994,VALID,0.107441,VALID,19.6248,VALID,141,VALID,0.913281,
2011-03-17, 01:22:04,VALID,914.863,VALID,0,VALID,95.4223,VALID,0,VALID,19.6038,VALID,141,VALID,0.699219,
2011-03-17, 01:23:04,VALID,914.831,VALID,0,VALID,95.3994,VALID,0,VALID,19.5633,VALID,141,VALID,0.488672,
2011-03-17, 01:24:04,VALID,914.851,VALID,0,VALID,95.3842,VALID,0,VALID,19.6038,VALID,141,VALID,0.567969,
2011-03-17, 01:25:04,VALID,914.839,VALID,0,VALID,95.3689,VALID,0,VALID,19.6248,VALID,141,VALID,0.257813,
2011-03-17, 01:26:04,VALID,914.861,VALID,0,VALID,95.4375,VALID,0,VALID,19.6443,VALID,141,VALID,0.725781,
2011-03-17, 01:27:04,VALID,914.824,VALID,0,VALID,95.529,VALID,0,VALID,19.6638,VALID,141,VALID,0.588281,
2011-03-17, 01:28:04,VALID,914.854,VALID,0,VALID,95.5824,VALID,0,VALID,19.6428,VALID,141,VALID,0.236719,
2011-03-17, 01:29:04,VALID,914.842,VALID,0,VALID,95.6281,VALID,0,VALID,19.6443,VALID,141,VALID,0.239453,
2011-03-17, 01:30:04,VALID,914.873,VALID,0,VALID,95.6434,VALID,0.107441,VALID,19.6443,VALID,141,VALID,0,
2011-03-17, 01:31:04,VALID,914.874,VALID,0,VALID,95.7272,VALID,0,VALID,19.6248,VALID,141,VALID,0.0179687,
2011-03-17, 01:32:04,VALID,914.852,VALID,0,VALID,95.7501,VALID,0,VALID,19.6248,VALID,141,VALID,0.103906,
2011-03-17, 01:33:04,VALID,914.828,VALID,0,VALID,95.7425,VALID,0,VALID,19.6053,VALID,141,VALID,0.0105469,
2011-03-17, 01:34:04,VALID,914.855,VALID,0,VALID,95.7654,VALID,0,VALID,19.5453,VALID,141,VALID,0,
2011-03-17, 01:35:04,VALID,914.844,VALID,0,VALID,95.8035,VALID,0,VALID,19.5663,VALID,141,VALID,0.290234,
2011-03-17, 01:36:04,VALID,914.838,VALID,0,VALID,95.8187,VALID,0,VALID,19.5468,VALID,141,VALID,0.226563,
2011-03-17, 01:37:04,VALID,914.852,VALID,0,VALID,95.8492,VALID,0,VALID,19.5078,VALID,141,VALID,0.235938,
2011-03-17, 01:38:04,VALID,914.842,VALID,0,VALID,95.8492,VALID,0.107441,VALID,19.4883,VALID,141,VALID,0.178125,
2011-03-17, 01:39:04,VALID,914.887,VALID,0,VALID,95.895,VALID,0,VALID,19.4478,VALID,142,VALID,0.385938,
2011-03-17, 01:40:04,VALID,914.841,VALID,0,VALID,95.8492,VALID,0,VALID,19.4103,VALID,142,VALID,0.286328,
2011-03-17, 01:41:04,VALID,914.841,VALID,0,VALID,95.8035,VALID,0,VALID,19.3518,VALID,141,VALID,0.229687,
2011-03-17, 01:42:04,VALID,914.864,VALID,0,VALID,95.7958,VALID,0,VALID,19.3323,VALID,142,VALID,0.127734,
2011-03-17, 01:43:04,VALID,914.858,VALID,0,VALID,95.8416,VALID,0,VALID,19.2933,VALID,141,VALID,0,
2011-03-17, 01:44:04,VALID,914.832,VALID,0,VALID,95.9712,VALID,0,VALID,19.2933,VALID,141,VALID,0,
2011-03-17, 01:45:04,VALID,914.834,VALID,0,VALID,96.0398,VALID,0,VALID,19.2918,VALID,141,VALID,0,
2011-03-17, 01:46:04,VALID,914.814,VALID,0,VALID,96.0779,VALID,0,VALID,19.3338,VALID,141,VALID,0,
2011-03-17, 01:47:04,VALID,914.802,VALID,0,VALID,96.0017,VALID,0.107441,VALID,19.2738,VALID,141,VALID,0.319922,
2011-03-17, 01:48:04,VALID,914.786,VALID,0,VALID,96.0017,VALID,0,VALID,19.1929,VALID,141,VALID,0.828125,
2011-03-17, 01:49:04,VALID,914.761,VALID,0,VALID,96.0017,VALID,0.107441,VALID,19.133,VALID,141,VALID,0.914063,
2011-03-17, 01:50:04,VALID,914.794,VALID,0,VALID,96.1618,VALID,0,VALID,19.1944,VALID,141,VALID,0.903906,
2011-03-17, 01:51:04,VALID,914.794,VALID,0,VALID,96.2685,VALID,0,VALID,19.2348,VALID,141,VALID,0.898438,
2011-03-17, 01:52:04,VALID,914.741,VALID,0,VALID,96.2685,VALID,0,VALID,19.2153,VALID,141,VALID,0.659766,
2011-03-17, 01:53:04,VALID,914.715,VALID,0,VALID,96.3295,VALID,0,VALID,19.2153,VALID,141,VALID,0.775781,
2011-03-17, 01:54:04,VALID,914.705,VALID,0,VALID,96.3219,VALID,0,VALID,19.1958,VALID,141,VALID,0.865234,
2011-03-17, 01:55:04,VALID,914.705,VALID,0,VALID,96.2914,VALID,0,VALID,19.1763,VALID,141,VALID,0.697266,
2011-03-17, 01:56:04,VALID,914.689,VALID,0,VALID,96.3295,VALID,0,VALID,19.1958,VALID,141,VALID,0.733984,
2011-03-17, 01:57:04,VALID,914.694,VALID,0,VALID,96.3905,VALID,0.107441,VALID,19.2363,VALID,141,VALID,1.03281,
2011-03-17, 01:58:04,VALID,914.665,VALID,0,VALID,96.3829,VALID,0,VALID,19.2363,VALID,141,VALID,0.735156,
2011-03-17, 01:59:04,VALID,914.674,VALID,0,VALID,96.4286,VALID,0,VALID,19.2348,VALID,141,VALID,0.480469,
2011-03-17, 02:00:04,VALID,914.67,VALID,0,VALID,96.4591,VALID,0,VALID,19.2153,VALID,141,VALID,0.782812,
2011-03-17, 02:01:04,VALID,914.657,VALID,0,VALID,96.4362,VALID,0,VALID,19.1958,VALID,141,VALID,0.766406,
2011-03-17, 02:02:04,VALID,914.641,VALID,0,VALID,96.4743,VALID,0,VALID,19.2168,VALID,141,VALID,0.594531,
2011-03-17, 02:03:04,VALID,914.651,VALID,0,VALID,96.4743,VALID,0,VALID,19.1554,VALID,141,VALID,0.696094,
2011-03-17, 02:04:04,VALID,914.644,VALID,0,VALID,96.5582,VALID,0,VALID,19.1763,VALID,141,VALID,0.598047,
2011-03-17, 02:05:04,VALID,914.674,VALID,0,VALID,96.5811,VALID,0,VALID,19.2182,VALID,141,VALID,0.227734,
2011-03-17, 02:06:04,VALID,914.619,VALID,0,VALID,96.5811,VALID,0,VALID,19.2168,VALID,141,VALID,0.10625,
2011-03-17, 02:07:04,VALID,914.63,VALID,0,VALID,96.6039,VALID,0,VALID,19.1958,VALID,141,VALID,0,
2011-03-17, 02:08:04,VALID,914.623,VALID,0,VALID,96.6115,VALID,0,VALID,19.1973,VALID,141,VALID,0,
2011-03-17, 02:09:04,VALID,914.618,VALID,0,VALID,96.6344,VALID,0,VALID,19.1763,VALID,141,VALID,0,
2011-03-17, 02:10:04,VALID,914.63,VALID,0,VALID,96.642,VALID,0,VALID,19.1749,VALID,141,VALID,0.520703,
2011-03-17, 02:11:04,VALID,914.576,VALID,0,VALID,96.6878,VALID,0,VALID,19.2153,VALID,141,VALID,0.607031,
2011-03-17, 02:12:04,VALID,914.591,VALID,0,VALID,96.7107,VALID,0,VALID,19.1958,VALID,141,VALID,0.489453,
2011-03-17, 02:13:04,VALID,914.606,VALID,0,VALID,96.7183,VALID,0,VALID,19.2153,VALID,141,VALID,0.816797,
2011-03-17, 02:14:04,VALID,914.558,VALID,0,VALID,96.7107,VALID,0,VALID,19.1749,VALID,141,VALID,0.916406,
2011-03-17, 02:15:04,VALID,914.559,VALID,0,VALID,96.703,VALID,0,VALID,19.1763,VALID,141,VALID,0.909375,
2011-03-17, 02:16:04,VALID,914.566,VALID,0,VALID,96.7335,VALID,0,VALID,19.2168,VALID,141,VALID,0.811719,
2011-03-17, 02:17:04,VALID,914.567,VALID,0,VALID,96.764,VALID,0,VALID,19.2168,VALID,141,VALID,0.688281,
2011-03-17, 02:18:04,VALID,914.571,VALID,0,VALID,96.764,VALID,0,VALID,19.1763,VALID,141,VALID,0.657812,
2011-03-17, 02:19:04,VALID,914.531,VALID,0,VALID,96.8021,VALID,0,VALID,19.1763,VALID,141,VALID,0.538281,
2011-03-17, 02:20:04,VALID,914.532,VALID,0,VALID,96.8098,VALID,0,VALID,19.1749,VALID,141,VALID,0.242578,
2011-03-17, 02:21:04,VALID,914.536,VALID,0,VALID,96.7793,VALID,0,VALID,19.1763,VALID,141,VALID,0,
2011-03-17, 02:22:04,VALID,914.537,VALID,0,VALID,96.825,VALID,0,VALID,19.1763,VALID,141,VALID,0.0132813,
2011-03-17, 02:23:04,VALID,914.539,VALID,0,VALID,96.8403,VALID,0,VALID,19.1763,VALID,141,VALID,0.287891,
2011-03-17, 02:24:04,VALID,914.488,VALID,0,VALID,96.8555,VALID,0,VALID,19.1958,VALID,141,VALID,0.137891,
2011-03-17, 02:25:04,VALID,914.509,VALID,0,VALID,96.8403,VALID,0,VALID,19.1958,VALID,141,VALID,0,
2011-03-17, 02:26:04,VALID,914.498,VALID,0,VALID,96.8403,VALID,0,VALID,19.2153,VALID,141,VALID,0,
2011-03-17, 02:27:04,VALID,914.504,VALID,0,VALID,96.8326,VALID,0,VALID,19.1958,VALID,141,VALID,0,
2011-03-17, 02:28:04,VALID,914.52,VALID,0,VALID,96.8326,VALID,0,VALID,19.1958,VALID,141,VALID,0,
2011-03-17, 02:29:04,VALID,914.488,VALID,0,VALID,96.8174,VALID,0,VALID,19.2168,VALID,141,VALID,0,
2011-03-17, 02:30:04,VALID,914.501,VALID,0,VALID,96.8021,VALID,0,VALID,19.1568,VALID,141,VALID,0,
2011-03-17, 02:31:04,VALID,914.516,VALID,0,VALID,96.7716,VALID,0,VALID,19.1568,VALID,141,VALID,0,
2011-03-17, 02:32:04,VALID,914.503,VALID,0,VALID,96.7335,VALID,0,VALID,19.1193,VALID,141,VALID,0.427344,
2011-03-17, 02:33:04,VALID,914.48,VALID,0,VALID,96.703,VALID,0,VALID,19.0998,VALID,141,VALID,0.530078,
2011-03-17, 02:34:04,VALID,914.472,VALID,0,VALID,96.6878,VALID,0,VALID,19.0608,VALID,141,VALID,0.585156,
2011-03-17, 02:35:04,VALID,914.475,VALID,0,VALID,96.7945,VALID,0,VALID,19.0398,VALID,141,VALID,0.442578,
2011-03-17, 02:36:04,VALID,914.457,VALID,0,VALID,96.8631,VALID,0,VALID,19.1193,VALID,141,VALID,0.489844,
2011-03-17, 02:37:04,VALID,914.447,VALID,0,VALID,96.8936,VALID,0,VALID,19.1193,VALID,141,VALID,0.40625,
2011-03-17, 02:38:04,VALID,914.438,VALID,0,VALID,96.9089,VALID,0,VALID,19.1388,VALID,141,VALID,0.224219,
2011-03-17, 02:39:04,VALID,914.446,VALID,0,VALID,96.8784,VALID,0,VALID,19.0983,VALID,141,VALID,0.223828,
2011-03-17, 02:40:04,VALID,914.415,VALID,0,VALID,96.8555,VALID,0,VALID,19.0998,VALID,141,VALID,0.310547,
2011-03-17, 02:41:04,VALID,914.434,VALID,0,VALID,96.8326,VALID,0,VALID,19.0788,VALID,141,VALID,0.621484,
2011-03-17, 02:42:04,VALID,914.417,VALID,0,VALID,96.8403,VALID,0,VALID,19.0593,VALID,141,VALID,0.639063,
2011-03-17, 02:43:04,VALID,914.409,VALID,0,VALID,96.886,VALID,0,VALID,19.0788,VALID,141,VALID,0.662109,
2011-03-17, 02:44:04,VALID,914.404,VALID,0,VALID,96.8936,VALID,0,VALID,19.0788,VALID,141,VALID,0.744922,
2011-03-17, 02:45:04,VALID,914.409,VALID,0,VALID,96.886,VALID,0,VALID,19.0788,VALID,141,VALID,0.559375,
2011-03-17, 02:46:04,VALID,914.389,VALID,0,VALID,96.8936,VALID,0,VALID,19.1193,VALID,141,VALID,0.348437,
2011-03-17, 02:47:04,VALID,914.364,VALID,0,VALID,96.9012,VALID,0,VALID,19.1193,VALID,141,VALID,0.491797,
2011-03-17, 02:48:04,VALID,914.394,VALID,0,VALID,96.9241,VALID,0,VALID,19.1178,VALID,141,VALID,0.334766,
2011-03-17, 02:49:04,VALID,914.408,VALID,0,VALID,96.9241,VALID,0,VALID,19.1373,VALID,141,VALID,0,
2011-03-17, 02:50:04,VALID,914.405,VALID,0,VALID,96.8707,VALID,0,VALID,19.1583,VALID,141,VALID,0,
2011-03-17, 02:51:04,VALID,914.41,VALID,0,VALID,96.8326,VALID,0,VALID,19.0983,VALID,141,VALID,0,
2011-03-17, 02:52:04,VALID,914.449,VALID,0,VALID,96.8784,VALID,0,VALID,19.0983,VALID,141,VALID,0,
2011-03-17, 02:53:04,VALID,914.422,VALID,0,VALID,96.9089,VALID,0,VALID,19.1178,VALID,141,VALID,0,
2011-03-17, 02:54:04,VALID,914.467,VALID,0,VALID,96.886,VALID,0,VALID,19.0983,VALID,141,VALID,0.00703125,
2011-03-17, 02:55:04,VALID,914.494,VALID,0,VALID,96.9165,VALID,0,VALID,19.1373,VALID,141,VALID,0.164063,
2011-03-17, 02:56:04,VALID,914.475,VALID,0,VALID,96.9012,VALID,0,VALID,19.1373,VALID,141,VALID,0,
2011-03-17, 02:57:04,VALID,914.485,VALID,0,VALID,96.9317,VALID,0,VALID,19.1568,VALID,141,VALID,0,
2011-03-17, 02:58:04,VALID,914.486,VALID,0,VALID,96.9012,VALID,0,VALID,19.1568,VALID,141,VALID,0,
2011-03-17, 02:59:04,VALID,914.494,VALID,0,VALID,96.9012,VALID,0,VALID,19.1568,VALID,141,VALID,0.176172,
2011-03-17, 03:00:04,VALID,914.499,VALID,0,VALID,96.9012,VALID,0,VALID,19.1568,VALID,141,VALID,0.298047,
2011-03-17, 03:01:04,VALID,914.479,VALID,0,VALID,96.8936,VALID,0,VALID,19.1763,VALID,141,VALID,0.310937,
2011-03-17, 03:02:04,VALID,914.493,VALID,0,VALID,96.8707,VALID,0,VALID,19.1568,VALID,142,VALID,0.377734,
2011-03-17, 03:03:04,VALID,914.46,VALID,0,VALID,96.886,VALID,0,VALID,19.1568,VALID,141,VALID,0.243359,
2011-03-17, 03:04:04,VALID,914.445,VALID,0,VALID,96.8784,VALID,0,VALID,19.1568,VALID,141,VALID,0.157031,
2011-03-17, 03:05:04,VALID,914.433,VALID,0,VALID,96.8707,VALID,0,VALID,19.1763,VALID,141,VALID,0,
2011-03-17, 03:06:04,VALID,914.43,VALID,0,VALID,96.886,VALID,0,VALID,19.1554,VALID,141,VALID,0,
2011-03-17, 03:07:04,VALID,914.395,VALID,0,VALID,96.886,VALID,0,VALID,19.1958,VALID,141,VALID,0,
2011-03-17, 03:08:04,VALID,914.406,VALID,0,VALID,96.8479,VALID,0,VALID,19.1763,VALID,141,VALID,0,
2011-03-17, 03:09:04,VALID,914.389,VALID,0,VALID,96.825,VALID,0,VALID,19.1973,VALID,141,VALID,0,
2011-03-17, 03:10:04,VALID,914.416,VALID,0,VALID,96.8403,VALID,0,VALID,19.1568,VALID,142,VALID,0,
2011-03-17, 03:11:04,VALID,914.404,VALID,0,VALID,96.825,VALID,0,VALID,19.1568,VALID,141,VALID,0,
2011-03-17, 03:12:04,VALID,914.393,VALID,0,VALID,96.8707,VALID,0,VALID,19.1568,VALID,142,VALID,0,
2011-03-17, 03:13:04,VALID,914.393,VALID,0,VALID,96.8784,VALID,0,VALID,19.1958,VALID,141,VALID,0,
2011-03-17, 03:14:04,VALID,914.397,VALID,0,VALID,96.8784,VALID,0,VALID,19.2153,VALID,141,VALID,0.512891,
2011-03-17, 03:15:04,VALID,914.386,VALID,0,VALID,96.8479,VALID,0,VALID,19.2153,VALID,141,VALID,0.24375,
2011-03-17, 03:16:04,VALID,914.363,VALID,0,VALID,96.8479,VALID,0,VALID,19.2348,VALID,141,VALID,0.245312,
2011-03-17, 03:17:04,VALID,914.366,VALID,0,VALID,96.8403,VALID,0,VALID,19.2558,VALID,141,VALID,0.000390625,
2011-03-17, 03:18:04,VALID,914.36,VALID,0,VALID,96.8174,VALID,0,VALID,19.2348,VALID,141,VALID,0.474609,
2011-03-17, 03:19:04,VALID,914.376,VALID,0,VALID,96.8021,VALID,0,VALID,19.2558,VALID,141,VALID,0.438281,
2011-03-17, 03:20:04,VALID,914.385,VALID,0,VALID,96.7869,VALID,0,VALID,19.2348,VALID,141,VALID,0.591016,
2011-03-17, 03:21:04,VALID,914.388,VALID,0,VALID,96.764,VALID,0,VALID,19.2348,VALID,141,VALID,0.39375,
2011-03-17, 03:22:04,VALID,914.401,VALID,0,VALID,96.7564,VALID,0,VALID,19.2153,VALID,141,VALID,0.360547,
2011-03-17, 03:23:04,VALID,914.374,VALID,0,VALID,96.7411,VALID,0,VALID,19.1749,VALID,141,VALID,0.356641,
2011-03-17, 03:24:04,VALID,914.4,VALID,0,VALID,96.7488,VALID,0,VALID,19.1973,VALID,141,VALID,0.388672,
2011-03-17, 03:25:04,VALID,914.443,VALID,0,VALID,96.7335,VALID,0,VALID,19.1763,VALID,141,VALID,0.439844,
2011-03-17, 03:26:04,VALID,914.4,VALID,0,VALID,96.7411,VALID,0,VALID,19.1568,VALID,141,VALID,0,
2011-03-17, 03:27:04,VALID,914.4,VALID,0,VALID,96.764,VALID,0,VALID,19.1763,VALID,141,VALID,0.449609,
2011-03-17, 03:28:04,VALID,914.447,VALID,0,VALID,96.7564,VALID,0,VALID,19.1973,VALID,141,VALID,0.343359,
2011-03-17, 03:29:04,VALID,914.435,VALID,0,VALID,96.7488,VALID,0,VALID,19.1973,VALID,141,VALID,0.376953,
2011-03-17, 03:30:04,VALID,914.449,VALID,0,VALID,96.764,VALID,0,VALID,19.1763,VALID,141,VALID,0.330469,
2011-03-17, 03:31:04,VALID,914.469,VALID,0,VALID,96.8021,VALID,0,VALID,19.2153,VALID,141,VALID,0.578516,
2011-03-17, 03:32:04,VALID,914.46,VALID,0,VALID,96.7945,VALID,0,VALID,19.1958,VALID,141,VALID,0.389453,
2011-03-17, 03:33:04,VALID,914.484,VALID,0,VALID,96.7869,VALID,0,VALID,19.2153,VALID,141,VALID,0.346875,
2011-03-17, 03:34:04,VALID,914.481,VALID,0,VALID,96.7793,VALID,0,VALID,19.1944,VALID,141,VALID,0.454688,
2011-03-17, 03:35:04,VALID,914.497,VALID,0,VALID,96.764,VALID,0,VALID,19.1958,VALID,141,VALID,0.491797,
2011-03-17, 03:36:04,VALID,914.513,VALID,0,VALID,96.8174,VALID,0,VALID,19.2153,VALID,141,VALID,0.655469,
2011-03-17, 03:37:04,VALID,914.53,VALID,0,VALID,96.8098,VALID,0,VALID,19.2153,VALID,141,VALID,0.0703125,
2011-03-17, 03:38:04,VALID,914.527,VALID,0,VALID,96.825,VALID,0,VALID,19.2363,VALID,141,VALID,0.258594,
2011-03-17, 03:39:04,VALID,914.555,VALID,0,VALID,96.8098,VALID,0,VALID,19.2153,VALID,141,VALID,0.44375,
2011-03-17, 03:40:04,VALID,914.544,VALID,0,VALID,96.8174,VALID,0,VALID,19.2348,VALID,141,VALID,0.437891,
2011-03-17, 03:41:04,VALID,914.559,VALID,0,VALID,96.8326,VALID,0,VALID,19.2348,VALID,141,VALID,0.381641,
2011-03-17, 03:42:04,VALID,914.57,VALID,0,VALID,96.8174,VALID,0,VALID,19.2153,VALID,141,VALID,0.360938,
2011-03-17, 03:43:04,VALID,914.567,VALID,0,VALID,96.7716,VALID,0,VALID,19.1973,VALID,141,VALID,0.317969,
2011-03-17, 03:44:04,VALID,914.581,VALID,0,VALID,96.8174,VALID,0,VALID,19.1763,VALID,141,VALID,0.326953,
2011-03-17, 03:45:04,VALID,914.578,VALID,0,VALID,96.8098,VALID,0,VALID,19.1973,VALID,141,VALID,0.280078,